Change the Weather History Date:

Saturday, May 4, 2013

  Actual Average Record
Temperature  
Mean Temperature 45 °F -  
Max Temperature 63 °F 73 °F 98 °F (2014)
Min Temperature 27 °F 47 °F 27 °F (1907)
Degree Days  
Heating Degree Days 20    
Moisture  
Dew Point 22 °F    
Average Humidity 44    
Maximum Humidity 82    
Minimum Humidity 8    
Precipitation  
Precipitation 0.00 in - - ()
Sea Level Pressure  
Sea Level Pressure 30.07 in    
Wind  
Wind Speed 13 mph (North)    
Max Wind Speed 28 mph    
Max Gust Speed 40 mph    
Visibility 10 miles    
Events      
Averages and records for this station are not official NWS values.
T = Trace of Precipitation, MM = Missing Value Source: NWS Daily Summary

Daily Weather History Graph

Daily Weather History Graph

Search for Another Location

Airport or City:

Trip Planner

Search our weather history database for the weather conditions in past years. The results will help you decide how hot, cold, wet, or windy it might be!

Date:

Astronomy

May. 04, 2013 Rise Set
Actual Time 6:40 AM CDT 8:33 PM CDT
Civil Twilight 6:12 AM CDT 9:01 PM CDT
Nautical Twilight 5:37 AM CDT 9:36 PM CDT
Astronomical Twilight 5:00 AM CDT 10:13 PM CDT
Moon 3:34 AM CDT 3:38 PM CDT
Length of Visible Light 14h 49m
Length of Day
13h 52m
Waning Crescent, 27% of the Moon is Illuminated
May 4
Waning Crescent
May 9
New
May 17
First Quarter
May 24
Full
May 31
Last Quarter

Hourly Weather History & Observations

Time (CDT) Temp. Windchill Dew Point Humidity Pressure Visibility Wind Dir Wind Speed Gust Speed Precip Events Conditions
12:52 AM 34.0 °F 28.8 °F 23.0 °F 64% 30.07 in 10.0 mi NNW 5.8 mph - N/A   Clear
1:52 AM 32.0 °F 24.8 °F 21.9 °F 66% 30.07 in 10.0 mi North 8.1 mph - N/A   Clear
2:52 AM 30.9 °F 24.3 °F 21.9 °F 69% 30.07 in 10.0 mi WNW 6.9 mph - N/A   Clear
3:52 AM 30.0 °F 22.4 °F 23.0 °F 75% 30.06 in 10.0 mi NW 8.1 mph - N/A   Clear
4:52 AM 28.0 °F 21.7 °F 21.0 °F 75% 30.07 in 10.0 mi NNW 5.8 mph - N/A   Clear
5:52 AM 28.9 °F 20.4 °F 21.0 °F 72% 30.08 in 10.0 mi NNW 9.2 mph - N/A   Clear
6:52 AM 28.9 °F 18.6 °F 19.9 °F 69% 30.09 in 10.0 mi NW 12.7 mph - N/A   Clear
7:52 AM 35.1 °F 25.5 °F 21.0 °F 57% 30.09 in 10.0 mi NNW 15.0 mph - N/A   Clear
8:52 AM 42.1 °F 32.1 °F 19.9 °F 41% 30.09 in 10.0 mi North 25.3 mph 31.1 mph N/A   Clear
9:52 AM 46.0 °F 37.6 °F 18.0 °F 33% 30.09 in 10.0 mi North 24.2 mph 33.4 mph N/A   Clear
10:52 AM 48.9 °F - 17.1 °F 28% 30.08 in 10.0 mi NNW 21.9 mph 29.9 mph N/A   Clear
11:52 AM 53.1 °F - 12.9 °F 20% 30.07 in 10.0 mi North 24.2 mph 38.0 mph N/A   Clear
12:52 PM 57.0 °F - 12.9 °F 18% 30.06 in 10.0 mi North 24.2 mph 34.5 mph N/A   Clear
1:52 PM 60.1 °F - 12.0 °F 15% 30.05 in 10.0 mi North 27.6 mph 39.1 mph N/A   Clear
2:52 PM 61.0 °F - 16.0 °F 17% 30.04 in 10.0 mi North 27.6 mph 36.8 mph N/A   Clear
3:52 PM 61.0 °F - 24.1 °F 24% 30.03 in 10.0 mi North 21.9 mph 40.3 mph N/A   Clear
4:52 PM 62.1 °F - 25.0 °F 24% 30.02 in 10.0 mi North 24.2 mph 34.5 mph N/A   Clear
5:52 PM 61.0 °F - 25.0 °F 25% 30.03 in 10.0 mi NNE 25.3 mph 34.5 mph N/A   Clear
6:52 PM 57.9 °F - 26.1 °F 30% 30.05 in 10.0 mi NNE 24.2 mph 34.5 mph N/A   Clear
7:52 PM 54.0 °F - 26.1 °F 34% 30.07 in 10.0 mi NNE 19.6 mph 27.6 mph N/A   Clear
8:52 PM 46.9 °F - 28.9 °F 50% 30.09 in 10.0 mi NE 12.7 mph - N/A   Clear
9:52 PM 43.0 °F 37.7 °F 32.0 °F 65% 30.13 in 10.0 mi NNE 9.2 mph - N/A   Clear
10:52 PM 39.0 °F 32.8 °F 32.0 °F 76% 30.15 in 10.0 mi North 9.2 mph - N/A   Clear
11:52 PM 35.1 °F 28.6 °F 30.0 °F 82% 30.16 in 10.0 mi North 8.1 mph - N/A   Clear